Zurück zum Katalog

COSMOS 970 DEB

AktivLEO
NORAD 64979·DEBRIS·🇷🇺 Russia

Gestartet Dec 21, 1977 von Baikonur Cosmodrome

Loading…

Nächste Überflüge (nächste 24 Stunden)

TLE

VeraltetSource: Space-Track

Epoche: Aug 17, 2026, 22:22 UTC

1 64979U 77121CQ  26229.93244345  .00000056  00000-0  14743-3 0  9991
2 64979  65.8344 297.8376 0126144 153.5087 207.2495 13.69464807334609

Verfolge COSMOS 970 DEB in Echtzeit mit AllMySat

Download on the App Store